Flag for Canada Weather past 2 weeks in Edmonton, Alberta, Canada

Now
52 °F

Clear.


Feels Like: 52 °F
Forecast: 45 / 56 °F
Wind: No wind

Location: Edmonton Municipal

Current Time: Oct 20, 2014 at 10:23:43 PM

Latest Report: Oct 20, 2014 at 10:00 PM


Visibility: 9 mi

Pressure: 29.49 "Hg

Humidity: 58%

Dew point: 37 °F

Location of EdmontonLocation

Historic Weather in Edmonton — Graph

°F

Edmonton temperature yesterday

Maximum temperature yesterday: 63 °F (at 1:00 PM)
Minimum temperature yesterday: 37 °F (at 5:00 AM)
Average temperature yesterday: 51 °F

Past Weeks' High & Low Weather Summary

 TemperatureHumidityPressure
High72 °F (Oct 10, 4:00 PM)100% (Oct 16, 6:00 AM)30.19 "Hg (Oct 16, 6:00 AM)
Low32 °F (Oct 13, 8:00 AM)27% (Oct 20, 3:00 PM)29.48 "Hg (Oct 14, 8:00 AM)
Average51 °F59%29.82 "Hg
* Reported Oct 5 9:00 PM — Oct 20 9:00 PM, Edmonton, Weather by CustomWeather, © 2014

Note: Actual official high and low records may vary slightly from our data, if they occured in-between our weather recording intervals... More about our weather records

Advertising

Edmonton weather history for previous 24 hours

 ConditionsComfort  
Time TempWeatherWind HumidityBarometerVisibility
9:00 PM
Oct 20
54 °FClear.No wind51%29.52 "Hg9 mi
8:00 PM55 °FClear.2 mph47%29.52 "Hg9 mi
7:00 PM57 °FSunny.2 mph44%29.53 "Hg9 mi
6:00 PM66 °FSunny.2 mph32%29.54 "Hg9 mi
5:00 PM70 °FSunny.2 mph29%29.53 "Hg9 mi
4:00 PM70 °FSunny.6 mph29%29.54 "Hg9 mi
3:00 PM72 °FSunny.8 mph27%29.53 "Hg9 mi
2:00 PM70 °FSunny.8 mph31%29.53 "Hg9 mi
1:00 PM68 °FSunny.8 mph35%29.54 "Hg9 mi
12:00 PM61 °FSunny.5 mph45%29.57 "Hg9 mi
11:00 AM54 °FSunny.2 mph51%29.59 "Hg9 mi
10:00 AM50 °FSunny.3 mph58%29.60 "Hg9 mi
9:00 AM41 °FClear.2 mph76%29.61 "Hg9 mi
8:00 AM39 °FClear.5 mph81%29.61 "Hg9 mi
7:00 AM41 °FClear.5 mph76%29.60 "Hg9 mi
6:00 AM39 °FClear.3 mph81%29.61 "Hg9 mi
5:00 AM41 °FClear.3 mph81%29.61 "Hg9 mi
4:00 AM43 °FClear.5 mph76%29.61 "Hg9 mi
3:00 AM45 °FClear.5 mph76%29.61 "Hg9 mi
2:00 AM43 °FClear.3 mph76%29.60 "Hg9 mi
1:00 AM48 °FClear.6 mph66%29.59 "Hg9 mi
12:00 AM50 °FClear.6 mph62%29.60 "Hg9 mi
11:00 PM
Oct 19
52 °FClear.10 mph58%29.61 "Hg9 mi
Weather by CustomWeather, © 2014

See weather overviewHow to use our weather pages